[Iaude] MPEC J195: 2017 BG233 [a=41.44,e=0.09,i=16.8,H=9.62]
    mpec at cfa.harvard.edu 
    mpec at cfa.harvard.edu
       
    Wed May  8 15:13:43 EDT 2024
    
    
  
M.P.E.C. 2024-J195                                  Issued 2024 May 8, 19:12 UT
     The Minor Planet Electronic Circulars contain information on unusual
         minor planets, routine data on comets and natural satellites,
         and occasional editorial announcements.  They are published
    on behalf of Division F of the International Astronomical Union by the
          Minor Planet Center, Smithsonian Astrophysical Observatory,
                          Cambridge, MA 02138, U.S.A.
			  
             Prepared using the Tamkin Foundation Computer Network
                              MPC at CFA.HARVARD.EDU
            URL https://www.minorplanetcenter.net/    ISSN 1523-6714
                                   2017 BG233                                   
Additional Observations:
     K17BN3G 4C2018 01 17.46122 10 08 06.47 +01 29 37.1          25.2 i1EJ195T09
     K17BN3G 4C2018 01 17.49135 10 08 06.35 +01 29 37.5          25.7 i1EJ195T09
     K17BN3G 4C2018 01 17.54536 10 08 06.13 +01 29 38.3          25.1 i1EJ195T09
     K17BN3G 1C2019 04 04.36413910 08 52.64 +01 56 52.2                WEJ195T09
     K17BN3G 1C2019 04 05.35891810 08 49.39 +01 57 24.9                WEJ195T09
Observer details:
T09 Subaru Telescope, Maunakea.  Observers H. Aihara, Y. AlSayyad, M. Ando, R.
    Armstrong, J. Bosch, E. Egami, H. Furusawa, J. Furusawa, S. Harasawa, Y.
    Harikane, B.-C. Hsieh, H. Ikeda, K. Ito, I. Iwata, T. Kodama, M. Koike, M.
    Kokubo, Y. Komiyama, X. Li, Y. Liang, Y.-T. Lin, R. H. Lupton, N. B. Lust,
    L. A. MacArthur, K. Mawatari, S. Mineo, H. Miyatake, S. Miyazaki, S. More,
    T. Morishima, H. Murayama, K. Nakajima, F. Nakata, A. J. Nishizawa, M.
    Oguri, N. Okabe, Y. Okura, Y. Ono, K. Osato, M. Ouchi, Y.-C. Pan, A. A.
    Plazas Malagon, P. A. Price, S. L. Reed, E. S. Rykoff, T. Shibuya, M.
    Simunovic, M. A. Strauss, K. Sugimori, Y. Suto, N. Suzuki, M. Takada, Y.
    Takagi, T. Takata, S. Takita, M. Tanaka, S. Tang, D. S. Taranu, T. Terai,
    Y. Toba, E. L. Turner, H. Uchiyama, B. Vijarnwannaluk, C. Z. Waters, Y.
    Yamada, N. Yamamoto, T. Yamashita.  Measurers H. Fukuyama, S. Deen.  8.2-m
    f/2.0 reflector + CCD(HSC), 8.3-m Subaru Telescope + CCD.
Orbital elements:
2017 BG233                                                                      
Epoch 2024 Mar. 31.0 TT = JDT 2460400.5                 Alexandersen            
M  30.19510              (2000.0)            P               Q                  
n   0.00369460     Peri.  300.17755     -0.57259420     -0.81945707             
a  41.4404720      Node   184.97679     +0.81573582     -0.56641366             
e   0.0934502      Incl.   16.76267     +0.08192039     -0.08755388             
P 267              H    9.62          G   0.15           U   6                  
Residuals in seconds of arc
161225 T09  0.2+  0.4+    170123 T09  0.1-  0.1+    170223 T09  0.1-  0.1+
161225 T09  0.0   0.1+    170123 T09  0.1-  0.0     170223 T09  0.2+  0.2-
161225 T09  0.3-  0.3-    170123 T09  0.1-  0.3-    170223 T09  0.1+  0.1-
161225 T09  0.3-  0.2+    170130 T09  0.3+  0.2+    170223 T09  0.1-  0.2-
170102 T09  0.2+  0.1-    170130 T09  0.2+  0.1-    170225 T09  0.2-  0.0
170102 T09  0.0   0.1+    170130 T09  0.1-  0.0     170225 T09  0.1+  0.3+
170102 T09  0.1+  0.1+    170130 T09  0.0   0.0     170225 T09  0.1+  0.2+
170102 T09  0.1+  0.2-    170130 T09  0.1-  0.2-    170225 T09  0.1-  0.2+
170102 T09  0.2-  0.0     170130 T09  0.3+  0.0     170225 T09  0.0   0.1-
170102 T09  0.1+  0.1-    170130 T09  0.2+  0.1-    170304 T09  0.3-  0.0
170102 T09  0.0   0.0     170130 T09  0.1+  0.2-    170304 T09  0.1+  0.0
170102 T09  0.1-  0.0     170130 T09  0.0   0.1-    170304 T09  0.1-  0.2+
170121 T09  0.1-  0.1+    170221 T09  0.5+  0.2+    170304 T09  0.2-  0.0
170121 T09  0.1-  0.3-    170221 T09  0.0   0.1+    170304 T09  0.0   0.1+
170121 T09  0.0   0.1-    170221 T09  0.1+  0.1+    170304 T09  0.2-  0.1+
170121 T09  0.0   0.0     170221 T09  0.0   0.3+    170304 T09  0.2-  0.1-
170121 T09  0.1+  0.1+    170221 T09  0.1+  0.1-    170304 T09  0.1-  0.1+
170121 T09  0.0   0.2-    170221 T09  0.0   0.4-    170304 T09  0.1-  0.0
170121 T09  0.2-  0.0     170221 T09  0.1+  0.5-    170304 T09  0.2-  0.0
170121 T09  0.1-  0.1-    170221 T09  0.0   0.0     170304 T09  0.5+  0.5+
170121 T09  0.3+  0.2-    170221 T09  0.2-  0.7+    170304 T09  0.1-  0.1-
170121 T09  0.2+  0.0     170221 T09  0.1+  0.5-    170306 T09  0.1+  0.2-
170121 T09  0.1+  0.5-    170221 T09  0.0   0.3+    170306 T09  0.2+  0.0
170123 T09  0.0   0.3+    170221 T09  0.2+  0.2-    170306 T09  0.2-  0.0
170123 T09  0.2-  0.0     170221 T09  0.1-  0.1+    180117 T09  0.0   0.1+
170123 T09  0.5+  0.2-    170223 T09  0.3-  0.2-    180117 T09  0.1+  0.0
170123 T09  0.2+  0.3+    170223 T09  0.1-  0.2+    180117 T09  0.1+  0.2-
170123 T09  0.0   0.2+    170223 T09  0.3-  0.2-    190404 T09  0.0   0.0
170123 T09  0.4-  0.2+    170223 T09  0.3+  0.0     190405 T09  0.1-  0.0
170123 T09  0.0   0.1+    170223 T09  0.1+  0.1-
Ephemeris:
2017 BG233               a,e,i = 41.44, 0.09, 17                 q = 37.5679
Date    TT    R. A. (2000) Decl.     Delta      r    Elong.  Phase     V
2024 04 08    10 40 53.8 +01 02 01  37.3989 38.1982   142.5     0.9    25.5
...
2024 04 23    10 40 09.2 +01 09 44  37.5757 38.2004   127.8     1.2    25.6
...
2024 05 01    10 39 52.8 +01 13 17  37.6874 38.2016   120.0     1.3    25.6
...
2024 05 07    10 39 44.2 +01 15 39  37.7775 38.2025   114.2     1.4    25.6
2024 05 08    10 39 43.1 +01 16 00  37.7929 38.2027   113.3     1.4    25.6
2024 05 09    10 39 42.1 +01 16 22  37.8085 38.2028   112.3     1.4    25.6
...
2024 05 15    10 39 37.9 +01 18 19  37.9042 38.2037   106.5     1.5    25.6
...
2024 05 23    10 39 37.7 +01 20 25  38.0361 38.2049    98.8     1.5    25.6
...
2024 06 07    10 39 53.8 +01 22 44  38.2892 38.2071    84.6     1.5    25.6
M. P. C. Staff               (C) Copyright 2024 MPC           M.P.E.C. 2024-J195
    
    
More information about the Iaude
mailing list